This demonstration page uses our WeatherBlox Daily Observations layout. Learn more.

Left ArrowRight Arrow

Hourly Observations for April 7, 2020

Temp ( °F °C ) Dew Point ( °F °C ) Humidity (%) Winds ( mph kmh ) Pressure ( in mb ) Visibility ( mi km ) Precip ( " mm )
12:52 am 00:52 Clear 56 13.3 54 12.2 93 93 SE 6 9 29.73 1007 7 11 0.00 0.00
1:52 am 01:52 Clear with Mist and Fog 55 12.8 54 12.2 96 96 SSE 12 19 29.72 1006 6 10 0.00 0.00
2:52 am 02:52 Clear with Mist and Fog 55 12.8 54 12.2 96 96 SSE 10 17 29.70 1006 6 10 0.00 0.00
3:52 am 03:52 Clear with Mist and Fog 51 10.6 51 10.6 100 100 SSE 9 15 29.69 1005 6 10 0.00 0.00
4:52 am 04:52 Clear with Mist and Fog 52 11.1 51 10.6 97 97 SSE 9 15 29.68 1005 5 8 0.00 0.00
5:52 am 05:52 Mostly Clear with Mist and Fog 50 10 50 10 100 100 SSE 8 13 29.69 1005 4 6 0.00 0.00
6:52 am 06:52 Partly Cloudy with Mist and Fog 52 11.1 52 11.1 100 100 S 3 6 29.70 1006 5 8 0.00 0.00
7:06 am 07:06 Partly Cloudy with Mist and Fog 50 10 50 10 100 100 Calm 29.73 1007 2 2 0.00 0.00
7:20 am 07:20 Partly Cloudy with Mist and Fog 50 10 49 9.4 96 96 S 5 7 29.73 1007 1 1 0.00 0.00
7:31 am 07:31 Mostly Cloudy with Fog 50 10 50 10 100 100 SSE 6 9 29.73 1007 1 1 0.00 0.00
7:37 am 07:37 Mostly Cloudy with Fog 50 10 50 10 100 100 SE 6 9 29.74 1007 0 0 0.00 0.00
7:48 am 07:48 Mostly Cloudy with Fog 52 11 52 11 100 100 SSE 9 15 29.73 1007 1 1 0.00 0.00
7:52 am 07:52 Mostly Cloudy with Fog 51 10.6 51 10.6 100 100 SSE 9 15 29.72 1006 1 1 0.00 0.00
8:15 am 08:15 Cloudy with Mist and Fog 55 12.8 55 12.8 100 100 SSE 9 15 29.72 1006 1 1 0.00 0.00
8:30 am 08:30 Cloudy with Mist and Fog 56 13.3 55 12.8 97 97 S 9 15 29.72 1006 1 2 0.00 0.00
8:52 am 08:52 Cloudy with Mist and Fog 56 13.3 56 13.3 100 100 SSE 7 11 29.72 1006 1 2 0.00 0.00
9:52 am 09:52 Cloudy with Mist and Fog 58 14.4 57 13.9 97 97 SW 6 9 29.72 1007 2 3 0.00 0.00
10:04 am 10:04 Mostly Cloudy with Mist and Fog 58 14.4 57 13.9 97 97 SW 6 9 29.72 1007 3 5 0.00 0.00
10:23 am 10:23 Mostly Cloudy with Mist and Fog 58 14.4 57 13.9 97 97 SSW 6 9 29.73 1007 5 8 0.00 0.00
10:45 am 10:45 Partly Cloudy with Mist and Fog 60 15.6 57 13.9 90 90 SSW 5 7 29.73 1007 6 10 0.00 0.00
10:52 am 10:52 Partly Cloudy with Mist and Fog 61 16.1 57 13.9 87 87 SSW 6 9 29.74 1007 6 10 0.00 0.00
11:52 am 11:52 Sunny 66 18.9 55 12.8 68 68 Calm 29.72 1007 10 16 0.00 0.00
12:52 pm 12:52 Sunny 73 22.8 54 12.2 51 51 SSW 3 6 29.69 1005 10 16 0.00 0.00
1:52 pm 13:52 Sunny 79 26.1 52 11.1 39 39 SSW 6 9 29.67 1005 10 16 0.00 0.00
2:52 pm 14:52 Sunny 86 30 35 1.7 16 16 NW 17 28 29.64 1004 10 16 0.00 0.00
3:52 pm 15:52 Mostly Sunny 86 30 35 1.7 16 16 WNW 17 28 29.63 1004 10 16 0.00 0.00
4:52 pm 16:52 Mostly Sunny 85 29.4 34 1.1 16 16 NW 17 28 29.63 1003 10 16 0.00 0.00
5:52 pm 17:52 Mostly Sunny 83 28.3 36 2.2 19 19 NW 16 26 29.65 1004 10 16 0.00 0.00
6:52 pm 18:52 Mostly Sunny 79 26.1 36 2.2 21 21 NNW 13 20 29.65 1004 10 16 0.00 0.00
7:52 pm 19:52 Sunny 71 21.7 38 3.3 30 30 NNW 8 13 29.67 1005 10 16 0.00 0.00
8:52 pm 20:52 Clear 69 20.6 38 3.3 32 32 Calm 29.69 1006 10 16 0.00 0.00
9:52 pm 21:52 Clear 63 17.2 41 5 45 45 Calm 29.72 1007 10 16 0.00 0.00
10:52 pm 22:52 Clear 58 14.4 41 5 53 53 Calm 29.73 1007 10 16 0.00 0.00
11:52 pm 23:52 Clear 54 12.2 43 6.1 67 67 N 5 7 29.73 1007 10 16 0.00 0.00

Powered by AerisWeather